Weather observations for the past three days for
San Antonio Boerne Stage Field
Metric (Imperial)
Date Time (cdt) Wind (kph) Vis. (km) Weather Sky Cond. Temperature (ºC) Relative Humidity Wind Chill (°C) Heat Index (°C) Pressure Precipitation (cm)
Air Dwpt 6 hour altimeter (cm) sea level (mb) 1 hr 3 hr 6 hr
Max. Min.
03 19:15 SE 20 G 28 16.09 Fair CLR 0 0 0% 75.9 0.0
03 18:55 E 17 G 26 16.09 Fair CLR 0 0 0% 75.87 0.0
03 18:35 SE 13 G 19 16.09 Fair CLR 0 0 0% 75.87 0.0
03 18:15 SE 9 16.09 Fair CLR 0 0 0% 75.84 0.0
03 17:55 SE 17 16.09 Fair CLR 0 0 0% 75.84 0.0
03 17:35 SE 15 G 31 16.09 Fair CLR 0 0 0% 75.84 0.0
03 17:15 S 11 16.09 Fair CLR 0 0 0% 75.84 0.0
03 16:55 S 13 G 26 16.09 Fair CLR 0 0 0% 75.84 0.0
03 16:35 E 6 16.09 Fair CLR 0 0 0% 75.87 0.0
03 16:15 E 6 16.09 Fair CLR 0 0 0% 75.9 0.0
03 15:55 SE 13 16.09 Partly Cloudy SCT070 0 0 0% 75.9 0.0
03 15:35 SW 7 16.09 Fair CLR 0 0 0% 75.92 0.0
03 15:15 S 13 16.09 Fair CLR 0 0 0% 75.95 0.0
03 14:55 Calm 16.09 Fair CLR 0 0 0% 75.97 0.0
03 14:35 Calm 16.09 Fair CLR 0 0 0% 75.97 0.0
03 14:15 SE 11 16.09 Fair CLR 0 0 0% 76 0.0
03 13:55 S 13 16.09 Fair CLR 0 0 0% 76.02 0.0
03 13:35 S 20 G 26 16.09 Fair CLR 0 0 0% 76.05 0.0
03 13:15 S 17 16.09 Fair CLR 0 0 0% 76.07 0.0
03 12:55 SW 13 16.09 Fair CLR 0 0 0% 76.1 0.0
03 12:35 SE 7 16.09 Fair CLR 0 0 0% 76.1 0.0
03 12:15 S 17 16.09 Fair CLR 0 0 0% 76.15 0.0
03 11:55 S 11 16.09 Fair CLR 0 0 0% 76.15 0.0
03 11:35 S 9 16.09 Fair CLR 0 0 0% 76.17 0.0
03 11:15 SW 15 16.09 Fair CLR 0 0 0% 76.15 0.0
03 10:55 S 9 16.09 Fair CLR 0 0 0% 76.17 0.0
03 10:35 SW 15 16.09 Partly Cloudy SCT120 0 0 0% 76.17 0.0
03 10:15 S 13 16.09 Partly Cloudy SCT120 0 0 0% 76.17 0.0
03 09:55 SW 13 16.09 Fair CLR 0 0 0% 76.17 0.0
03 09:35 S 11 16.09 Partly Cloudy SCT014 0 0 0% 76.17 0.0
03 09:15 S 9 16.09 Mostly Cloudy BKN014 0 0 0% 76.17 0.0
03 08:55 SW 11 16.09 Overcast OVC012 0 0 0% 76.2 0.0
03 08:35 S 6 16.09 Mostly Cloudy BKN014 BKN018 0 0 0% 76.17 0.0
03 08:15 S 7 16.09 Mostly Cloudy BKN010 BKN016 0 0 0% 76.17 0.0
03 07:55 S 7 16.09 Overcast OVC010 0 0 0% 76.17 0.0
03 07:35 S 7 16.09 Overcast OVC010 0 0 0% 76.15 0.0
03 07:15 S 7 16.09 Mostly Cloudy BKN012 BKN016 0 0 0% 76.15 0.0
03 06:55 S 9 16.09 Mostly Cloudy BKN014 BKN019 0 0 0% 76.12 0.0
03 06:35 S 11 16.09 Partly Cloudy SCT017 0 0 0% 76.12 0.0
03 06:15 SW 11 16.09 Partly Cloudy SCT012 0 0 0% 76.1 0.0
03 05:55 S 11 16.09 Mostly Cloudy BKN012 BKN017 0 0 0% 76.12 0.0
03 05:35 S 9 16.09 Mostly Cloudy BKN014 BKN019 0 0 0% 76.1 0.0
03 05:15 S 9 16.09 Mostly Cloudy SCT014 BKN019 0 0 0% 76.1 0.0
03 04:55 S 11 16.09 Mostly Cloudy BKN012 BKN018 0 0 0% 76.1 0.0
03 04:35 S 6 16.09 Mostly Cloudy BKN012 0 0 0% 76.12 0.0
03 04:15 S 9 16.09 Partly Cloudy SCT012 0 0 0% 76.1 0.0
03 03:55 S 9 16.09 Partly Cloudy SCT012 0 0 0% 76.1 0.0
03 03:35 S 9 16.09 Fair CLR 0 0 0% 76.1 0.0
03 03:15 SE 7 16.09 Fair CLR 0 0 0% 76.15 0.0
03 02:55 S 6 16.09 Fair CLR 0 0 0% 76.12 0.0
03 02:35 S 7 16.09 Fair CLR 0 0 0% 76.1 0.0
03 02:15 S 11 16.09 Fair CLR 0 0 0% 76.12 0.0
03 01:55 S 17 16.09 Fair CLR 0 0 0% 76.12 0.0
03 01:35 S 13 16.09 Fair CLR 0 0 0% 76.15 0.0
03 01:15 S 11 16.09 Fair CLR 0 0 0% 76.15 0.0
03 00:55 S 15 16.09 Fair CLR 0 0 0% 76.15 0.0
03 00:35 S 13 16.09 Fair CLR 0 0 0% 76.15 0.0
03 00:15 S 15 16.09 Fair CLR 0 0 0% 76.12 0.0
02 23:55 S 13 16.09 Fair CLR 0 0 0% 76.1 0.0
02 23:35 S 17 16.09 Fair CLR 0 0 0% 76.1 0.0
02 23:15 S 15 16.09 Fair CLR 0 0 0% 76.1 0.0
02 22:55 S 7 16.09 Fair CLR 0 0 0% 76.1 0.0
02 22:35 S 6 16.09 Fair CLR 0 0 0% 76.07 0.0
02 22:15 Calm 16.09 Fair CLR 0 0 0% 76.05 0.0
02 21:55 Calm 16.09 Fair CLR 0 0 0% 76.02 0.0
02 21:35 Calm 16.09 Fair CLR 0 0 0% 76 0.0
02 21:15 Calm 16.09 Fair CLR 0 0 0% 76 0.0
02 20:55 Calm 16.09 Fair CLR 0 0 0% 75.97 0.0
02 20:35 Calm 16.09 Fair CLR 0 0 0% 75.97 0.0
02 20:15 Calm 16.09 Fair CLR 0 0 0% 75.95 0.0
02 19:55 Calm 16.09 Fair CLR 0 0 0% 75.95 0.0
02 19:35 S 7 16.09 Fair CLR 0 0 0% 75.95 0.0
02 19:15 S 9 16.09 Fair CLR 0 0 0% 75.95 0.0
02 18:55 S 9 16.09 Fair CLR 0 0 0% 75.95 0.0
02 18:35 S 9 16.09 Fair CLR 0 0 0% 75.97 0.0
02 18:15 S 11 16.09 Fair CLR 0 0 0% 75.97 0.0
02 17:55 S 11 16.09 Fair CLR 0 0 0% 75.97 0.0
02 17:35 SW 7 16.09 Fair CLR 0 0 0% 75.97 0.0
02 17:15 S 7 16.09 Fair CLR 0 0 0% 75.97 0.0
02 16:55 S 6 16.09 Fair CLR 0 0 0% 76 0.0
02 16:35 SW 7 16.09 Fair CLR 0 0 0% 76 0.0
02 16:15 S 7 16.09 Partly Cloudy SCT080 SCT090 0 0 0% 76 0.0
02 15:55 S 9 16.09 Mostly Cloudy SCT070 BKN090 0 0 0% 76.02 0.0
02 15:35 SE 6 16.09 Partly Cloudy SCT070 SCT080 0 0 0% 76.05 0.0
02 15:15 SE 13 16.09 Mostly Cloudy SCT070 BKN080 0 0 0% 76.05 0.0
02 14:55 E 6 16.09 Fair CLR 0 0 0% 76.1 0.0
02 14:35 SE 9 16.09 Fair CLR 0 0 0% 76.12 0.0
02 14:15 E 7 16.09 Fair CLR 0 0 0% 76.15 0.0
02 13:55 Calm 16.09 Partly Cloudy SCT060 0 0 0% 76.17 0.0
02 13:35 SW 9 16.09 Mostly Cloudy BKN060 0 0 0% 76.2 0.0
02 13:15 SE 6 16.09 Partly Cloudy SCT060 0 0 0% 76.23 0.0
02 12:55 SE 9 16.09 Partly Cloudy SCT060 0 0 0% 76.25 0.0
02 12:35 S 9 16.09 Fair CLR 0 0 0% 76.28 0.0
02 12:15 S 7 16.09 Fair CLR 0 0 0% 76.28 0.0
02 11:55 S 7 16.09 Fair CLR 0 0 0% 76.3 0.0
02 11:35 SW 9 16.09 Fair CLR 0 0 0% 76.3 0.0
02 11:15 SW 9 16.09 Fair CLR 0 0 0% 76.3 0.0
02 10:55 SW 13 16.09 Fair CLR 0 0 0% 76.33 0.0
02 10:35 SW 9 16.09 Fair CLR 0 0 0% 76.3 0.0
02 10:15 SW 11 16.09 Fair CLR 0 0 0% 76.3 0.0
02 09:55 SW 9 16.09 Fair CLR 0 0 0% 76.33 0.0
02 09:35 S 13 16.09 Fair CLR 0 0 0% 76.33 0.0
02 09:15 S 7 16.09 Fair CLR 0 0 0% 76.3 0.0
02 08:55 S 9 16.09 Fair CLR 0 0 0% 76.3 0.0
02 08:35 Calm 16.09 Partly Cloudy SCT008 0 0 0% 76.3 0.0
02 07:55 Calm 16.09 Fair CLR 0 0 0% 76.28 0.0
02 07:35 Calm 16.09 Fair CLR 0 0 0% 76.28 0.0
02 07:15 Calm 16.09 Fair CLR 0 0 0% 76.28 0.0
02 06:55 Calm 16.09 Fair CLR 0 0 0% 76.25 0.0
02 06:35 Calm 16.09 Fair CLR 0 0 0% 76.25 0.0
02 06:15 Calm 16.09 Fair CLR 0 0 0% 76.25 0.0
02 05:55 Calm 16.09 Fair CLR 0 0 0% 76.25 0.0
02 05:35 Calm 16.09 Fair CLR 0 0 0% 76.25 0.0
02 05:15 Calm 16.09 Fair CLR 0 0 0% 76.25 0.0
02 04:55 Calm 16.09 Fair CLR 0 0 0% 76.25 0.0
02 04:35 Calm 16.09 Fair CLR 0 0 0% 76.25 0.0
02 04:15 Calm 16.09 Fair CLR 0 0 0% 76.25 0.0
02 03:55 Calm 16.09 Fair CLR 0 0 0% 76.25 0.0
02 03:35 S 6 16.09 Fair CLR 0 0 0% 76.25 0.0
02 03:15 Calm 16.09 Fair CLR 0 0 0% 76.28 0.0
02 02:55 S 6 16.09 Fair CLR 0 0 0% 76.28 0.0
02 02:35 S 9 16.09 Fair CLR 0 0 0% 76.28 0.0
02 02:15 S 6 16.09 Fair CLR 0 0 0% 76.28 0.0
02 01:55 S 6 16.09 Fair CLR 0 0 0% 76.25 0.0
02 01:35 S 6 16.09 Fair CLR 0 0 0% 76.25 0.0
02 01:15 S 7 16.09 Fair CLR 0 0 0% 76.25 0.0
02 00:55 S 7 16.09 Fair CLR 0 0 0% 76.25 0.0
02 00:35 S 9 16.09 Fair CLR 0 0 0% 76.25 0.0
02 00:15 SE 9 16.09 Fair CLR 0 0 0% 76.25 0.0
01 23:55 SE 9 16.09 Fair CLR 0 0 0% 76.25 0.0
01 23:35 S 7 16.09 Fair CLR 0 0 0% 76.23 0.0
01 23:15 SE 11 16.09 Fair CLR 0 0 0% 76.25 0.0
01 22:55 SE 9 16.09 Fair CLR 0 0 0% 76.23 0.0
01 22:35 SE 9 16.09 Partly Cloudy SCT075 0 0 0% 76.23 0.0
01 22:15 SE 7 16.09 Partly Cloudy SCT075 0 0 0% 76.2 0.0
01 21:55 SE 7 16.09 Fair CLR 0 0 0% 76.17 0.0
01 21:35 SE 6 16.09 Fair CLR 0 0 0% 76.15 0.0
01 21:15 SE 6 16.09 Fair CLR 0 0 0% 76.12 0.0
01 20:55 Calm 16.09 Fair CLR 0 0 0% 76.1 0.0
01 20:35 Calm 16.09 Fair CLR 0 0 0% 76.07 0.0
01 20:15 SE 6 16.09 Fair CLR 0 0 0% 76.07 0.0
01 19:55 Calm 16.09 Fair CLR 0 0 0% 76.07 0.0
01 19:35 SE 7 16.09 Fair CLR 0 0 0% 76.07 0.0
01 19:15 SE 6 16.09 Fair CLR 0 0 0% 76.07 0.0
01 18:55 SE 7 16.09 Fair CLR 0 0 0% 76.07 0.0
01 18:35 SE 9 16.09 Fair CLR 0 0 0% 76.07 0.0
01 18:15 SE 6 G 17 16.09 Fair CLR 0 0 0% 76.07 0.0
01 17:55 Calm 16.09 Fair CLR 0 0 0% 76.07 0.0
01 17:35 Calm 16.09 Partly Cloudy SCT070 SCT085 0 0 0% 76.07 0.0
01 16:55 SE 6 16.09 Partly Cloudy SCT070 0 0 0% 76.07 0.0
01 16:35 S 11 16.09 Fair CLR 0 0 0% 76.1 0.0
01 16:15 S 7 16.09 Partly Cloudy SCT075 0 0 0% 76.1 0.0
01 15:55 S 9 16.09 Partly Cloudy SCT075 0 0 0% 76.15 0.0
01 15:35 E 6 16.09 Fair CLR 0 0 0% 76.15 0.0
01 15:15 SE 9 16.09 Fair CLR 0 0 0% 76.2 0.0
01 14:55 E 13 16.09 Fair CLR 0 0 0% 76.2 0.0
01 14:35 SE 9 16.09 Fair CLR 0 0 0% 76.23 0.0
01 14:15 E 9 16.09 Fair CLR 0 0 0% 76.25 0.0
01 13:55 E 9 16.09 Fair CLR 0 0 0% 76.25 0.0
01 13:35 SE 7 16.09 Fair CLR 0 0 0% 76.28 0.0
01 13:15 SE 7 16.09 Fair CLR 0 0 0% 76.3 0.0
01 12:55 SE 7 16.09 Fair CLR 0 0 0% 76.33 0.0
01 12:35 E 11 16.09 Fair CLR 0 0 0% 76.35 0.0
01 12:15 S 9 16.09 Fair CLR 0 0 0% 76.35 0.0
01 11:55 S 9 16.09 Fair CLR 0 0 0% 76.38 0.0
01 11:35 SE 13 16.09 Fair CLR 0 0 0% 76.38 0.0
01 11:15 Calm 16.09 Fair CLR 0 0 0% 76.38 0.0
01 10:55 Calm 16.09 Fair CLR 0 0 0% 76.38 0.0
01 10:35 SE 7 16.09 Fair CLR 0 0 0% 76.38 0.0
01 10:15 SE 7 16.09 Fair CLR 0 0 0% 76.38 0.0
01 09:55 S 7 16.09 Fair CLR 0 0 0% 76.38 0.0
01 09:35 S 6 16.09 Fair CLR 0 0 0% 76.38 0.0
01 09:15 S 6 16.09 Fair CLR 0 0 0% 76.38 0.0
01 08:55 SE 7 16.09 Fair CLR 0 0 0% 76.38 0.0
01 08:35 Calm 16.09 Fair CLR 0 0 0% 76.35 0.0
01 08:15 Calm 16.09 Fair CLR 0 0 0% 76.35 0.0
01 07:55 Calm 16.09 Fair CLR 0 0 0% 76.35 0.0
01 07:35 Calm 16.09 Fair CLR 0 0 0% 76.33 0.0
01 07:15 Calm 16.09 Fair CLR 0 0 0% 76.33 0.0
01 06:55 Calm 16.09 Fair CLR 0 0 0% 76.33 0.0
01 06:35 Calm 16.09 Fair CLR 0 0 0% 76.33 0.0
01 06:15 Calm 16.09 Fair CLR 0 0 0% 76.33 0.0
01 05:55 Calm 16.09 Fair CLR 0 0 0% 76.3 0.0
01 05:35 SW 6 16.09 Fair CLR 0 0 0% 76.3 0.0
01 05:15 SW 6 16.09 Partly Cloudy SCT013 SCT018 0 0 0% 76.33 0.0
01 04:55 Calm 16.09 Mostly Cloudy BKN015 0 0 0% 76.33 0.0
01 04:35 Calm 16.09 Mostly Cloudy BKN015 0 0 0% 76.33 0.0
01 04:15 S 6 16.09 Partly Cloudy SCT015 0 0 0% 76.33 0.0
01 03:55 S 6 16.09 Partly Cloudy SCT017 0 0 0% 76.33 0.0
01 03:35 S 11 16.09 Mostly Cloudy BKN017 0 0 0% 76.35 0.0
01 03:15 S 13 16.09 Partly Cloudy SCT017 0 0 0% 76.33 0.0
01 02:55 S 7 16.09 Fair CLR 0 0 0% 76.33 0.0
01 02:35 S 9 16.09 Fair CLR 0 0 0% 76.3 0.0
01 02:15 S 11 16.09 Fair CLR 0 0 0% 76.33 0.0
01 01:55 S 11 16.09 Fair CLR 0 0 0% 76.33 0.0
01 01:35 S 17 16.09 Fair CLR 0 0 0% 76.3 0.0
01 01:15 S 15 16.09 Fair CLR 0 0 0% 76.3 0.0
01 00:55 S 7 16.09 Fair CLR 0 0 0% 76.28 0.0
01 00:35 S 11 16.09 Fair CLR 0 0 0% 76.28 0.0
01 00:15 S 11 16.09 Fair CLR 0 0 0% 76.28 0.0
31 23:55 S 15 16.09 Fair CLR 0 0 0% 76.28 0.0
31 23:35 SE 9 16.09 Fair CLR 0 0 0% 76.28 0.0
31 23:15 SE 9 16.09 Fair CLR 0 0 0% 76.25 0.0
31 22:55 S 15 16.09 Fair CLR 0 0 0% 76.25 0.0
31 22:35 S 20 16.09 Fair CLR 0 0 0% 76.23 0.0
31 22:15 SE 17 16.09 Fair CLR 0 0 0% 76.23 0.0
31 21:55 SE 19 G 28 16.09 Fair CLR 0 0 0% 76.2 0.0
31 21:35 SE 13 16.09 Fair CLR 0 0 0% 76.17 0.0
31 21:15 SE 11 16.09 Partly Cloudy SCT070 0 0 0% 76.15 0.0
31 20:55 SE 15 G 30 16.09 Partly Cloudy SCT070 0 0 0% 76.15 0.0
31 20:35 E 7 16.09 Fair CLR 0 0 0% 76.12 0.0
31 20:15 E 6 16.09 Fair CLR 0 0 0% 76.12 0.0
31 19:55 E 9 16.09 Fair CLR 0 0 0% 76.1 0.0
31 19:35 SE 7 16.09 Fair CLR 0 0 0% 76.1 0.0
Date Time (cdt) Wind (kph) Vis. (km) Weather Sky Cond. Air Dwpt Max. Min. Relative Humidity Wind Chill (°C) Heat Index (°C) altimeter (cm) sea level (mb) 1 hr 3 hr 6 hr
6 hour
Temperature (ºC) Pressure Precipitation (cm)